Location: Bothwell
(42.3833°S, 147.0000°E)
Time: 20:34:00
(UTC+11:00)

CUBESAT XI-V - Pass Details

Date: 27 September 2022
Orbit: 666 x 689 km, 98.1° (Epoch: 25 November)

Event Time Altitude Azimuth Distance (km) Brightness Sun altitude
Rises 04:26:00 0° 188° (S) 3,084 ? -16.7°
Reaches altitude 10° 04:29:40 10° 218° (SW) 2,163 ? -16.0°
Enters shadow 04:31:09 12° 236° (SW) 2,029 ? -15.8°
